Wind_Speed
53 54 54 56 57 59 60 62 63 63 62 61 62 63 64 65 67 68 69 70 71 72 73 74 75 76 77 78 78 79 79 80 80 81 82 83 83 84
54 55 56 57 58 60 61 63 65 66 67 66 66 67 68 69 70 70 71 71 72 73 74 75 76 77 78 78 78 79 79 79 79 79 79 79 79 80
56 57 58 59 60 61 63 64 65 67 68 68 70 71 72 73 73 73 73 74 75 76 76 77 77 78 78 78 78 77 77 76 75 75 74 74 74 74
57 58 59 60 61 62 63 65 66 69 71 71 72 73 75 76 77 77 78 79 79 79 79 79 79 78 77 76 74 73 72 71 70 69 69 68 68 68
58 59 60 61 62 63 65 67 69 71 73 75 75 76 77 79 80 81 82 82 82 81 80 79 77 75 73 71 69 67 66 65 63 63 62 62 62 62
59 60 61 62 64 66 68 70 72 74 76 78 78 79 80 81 83 83 82 80 79 78 76 74 71 69 66 64 61 60 58 57 55 55 54 54 53 53
60 61 63 65 67 69 72 74 76 79 80 81 81 81 81 82 82 81 79 76 73 70 68 65 63 60 57 55 53 51 49 48 47 46 45 45 45 45
62 64 66 69 71 73 76 78 81 83 84 84 83 82 81 80 78 75 72 69 64 60 59 55 54 51 49 47 45 44 42 41 40 40 39 39 39 40
66 68 70 73 75 78 80 82 83 85 85 85 83 80 77 74 71 67 64 60 55 52 51 47 46 45 44 43 41 40 38 37 36 35 35 35 35 36
70 72 75 77 80 83 84 85 84 83 82 81 78 74 70 67 63 60 56 52 48 46 45 42 40 40 39 39 38 36 35 34 33 32 32 32 33 34
73 76 80 82 84 87 87 86 83 79 77 75 72 67 63 60 57 53 50 47 43 41 40 38 37 36 35 35 34 34 32 31 31 30 29 29 30 30
78 81 84 87 87 87 86 83 79 74 71 67 63 59 56 53 50 48 45 43 40 37 36 36 34 33 31 31 31 31 31 30 29 28 28 27 27 27
83 84 86 87 86 83 81 78 74 70 65 60 55 51 49 46 44 43 41 40 37 35 34 33 31 30 29 28 29 30 29 29 28 27 26 26 26 26
86 86 86 84 81 78 75 72 68 63 58 53 48 45 42 41 39 38 37 36 35 33 31 30 29 28 27 26 26 27 28 27 27 26 26 26 26 25
87 86 83 79 76 72 68 64 60 55 50 46 42 39 38 37 35 34 34 33 32 30 29 28 27 26 25 24 24 25 26 26 26 25 25 25 26 25
85 81 76 72 68 63 59 55 51 47 44 40 37 35 34 34 33 32 31 30 29 28 28 26 25 24 24 24 24 24 24 24 24 24 24 24 25 25
80 74 69 64 59 54 51 47 44 41 38 36 34 32 31 31 30 29 28 27 26 26 26 25 24 23 23 23 23 23 23 23 24 24 24 24 24 25
73 67 62 57 53 48 44 41 38 36 34 33 32 31 29 29 28 28 27 26 25 24 24 24 23 23 23 23 23 22 22 23 23 23 23 23 24 24
65 60 56 52 48 43 40 36 33 32 31 30 29 29 28 27 26 26 25 24 23 23 23 23 22 22 22 23 23 22 22 23 23 23 23 23 23 23
59 56 52 47 43 40 36 33 30 29 29 29 28 27 27 25 24 24 23 23 22 22 22 22 22 21 21 21 21 21 21 21 22 22 21 21 21 21
54 51 47 43 40 36 33 30 28 28 28 28 27 26 25 24 23 23 22 22 21 21 21 21 21 20 20 20 20 20 20 20 20 20 20 20 20 20
50 46 42 39 36 33 31 28 27 27 27 27 26 25 24 22 22 21 21 20 20 20 20 20 20 19 19 19 19 20 19 19 19 19 19 19 18 18
45 41 38 35 33 31 29 28 27 27 26 26 25 24 23 22 21 20 20 20 20 20 20 20 20 19 19 18 18 19 19 19 19 19 19 19 18 18
Wind_Direction
294 293 293 293 293 293 293 293 292 291 289 290 289 289 289 289 289 288 288 287 286 286 285 284 284 283 282 282 281 280 278 277 276 274 273 271 269 267
294 294 294 294 294 294 294 294 294 293 293 293 292 292 292 291 291 290 289 288 287 287 286 286 285 284 283 283 282 281 280 278 277 275 273 271 270 268
295 295 294 294 294 294 295 295 295 295 295 295 295 295 295 294 294 293 292 291 290 289 288 287 287 286 285 284 283 282 280 278 277 275 273 272 270 268
296 295 295 295 295 296 296 296 296 296 296 296 296 296 296 295 295 294 294 293 292 291 290 289 288 287 286 284 283 281 279 278 276 274 273 271 268 267
297 296 296 296 297 297 297 297 297 298 298 298 297 297 296 296 295 295 295 294 293 292 291 290 289 287 286 284 282 281 279 277 275 273 271 269 267 265
298 298 298 298 298 298 299 299 299 299 299 298 298 297 297 297 296 295 294 293 293 292 291 289 288 287 285 283 281 279 277 275 273 271 269 267 265 263
299 299 299 299 300 300 300 300 300 300 299 299 299 298 298 297 296 295 294 293 292 291 289 288 287 286 284 282 280 278 276 274 272 270 268 265 263 261
300 300 300 301 301 301 301 302 302 301 301 300 300 299 298 297 296 295 294 292 291 289 287 286 285 284 283 281 278 276 274 272 271 269 267 264 263 261
301 302 302 302 302 302 302 303 303 302 301 301 300 299 298 297 295 294 293 292 291 288 286 285 283 282 281 280 278 276 273 271 269 267 265 264 263 262
303 303 303 303 303 303 303 303 303 302 300 300 299 298 297 296 294 294 292 291 290 288 287 284 281 280 279 278 277 275 272 270 269 266 264 264 263 262
304 304 304 304 304 304 304 303 302 301 299 299 298 297 296 295 294 293 292 291 289 288 286 284 280 278 277 276 275 273 271 270 269 267 264 263 263 262
305 306 306 306 306 305 304 303 302 300 299 298 297 296 295 293 292 291 291 290 289 287 285 283 280 278 275 274 272 271 270 269 268 266 263 262 262 261
306 306 306 306 305 304 303 302 301 300 299 297 295 294 292 291 290 290 290 289 288 287 284 281 279 277 275 271 269 268 268 268 267 264 263 262 261 260
307 307 307 306 305 304 302 301 300 299 298 296 295 293 291 290 289 288 288 288 288 286 284 281 278 275 273 271 268 267 267 267 266 265 263 262 260 259
308 308 307 306 305 304 302 301 299 298 297 296 294 292 291 290 289 288 287 287 286 284 282 280 277 275 273 270 268 267 266 266 266 265 263 261 259 258
308 308 307 306 305 304 302 300 299 297 296 294 293 291 290 290 288 287 287 286 284 282 280 279 277 274 272 270 268 266 265 265 265 265 262 260 258 256
308 308 307 306 305 303 301 300 298 296 294 294 293 291 290 289 288 287 287 284 282 280 278 277 276 273 271 270 268 266 266 265 265 265 262 260 258 255
308 308 308 307 305 303 300 299 296 294 293 293 292 291 290 288 287 286 285 283 281 278 276 276 275 273 271 269 268 267 265 265 265 265 263 260 258 255
307 308 307 306 305 303 300 298 294 292 292 292 291 290 290 288 286 285 283 281 280 277 275 274 274 274 271 269 268 267 266 265 265 264 262 260 258 255
307 306 306 305 303 301 299 296 293 292 292 292 291 290 290 288 285 283 281 280 280 277 275 273 273 273 271 270 268 268 266 265 264 263 261 259 257 254
306 305 304 302 301 299 297 294 292 292 292 292 291 291 289 287 285 282 280 279 278 276 275 273 273 273 271 269 268 267 266 265 263 262 260 259 257 254
305 304 302 300 298 296 294 291 290 291 291 291 291 290 288 286 283 282 280 278 276 275 273 272 272 272 271 269 267 266 265 264 263 261 259 258 256 253
303 302 300 298 295 294 291 290 289 289 289 289 289 289 287 284 282 280 279 278 277 275 272 271 272 272 270 268 266 265 264 263 262 261 258 255 253 250
Height
5667 5663 5659 5654 5650 5645 5640 5636 5632 5630 5630 5627 5621 5616 5610 5606 5600 5595 5591 5586 5582 5578 5574 5570 5566 5563 5560 5557 5555 5553 5551 5550 5549 5548 5549 5549 5550 5552
5654 5650 5645 5640 5636 5630 5625 5620 5614 5610 5608 5606 5601 5595 5590 5585 5579 5574 5569 5565 5560 5555 5551 5547 5543 5539 5535 5532 5529 5527 5525 5523 5522 5522 5522 5522 5523 5524
5641 5636 5631 5626 5621 5615 5610 5604 5598 5592 5588 5586 5579 5573 5566 5561 5556 5550 5545 5540 5536 5530 5526 5521 5517 5513 5510 5506 5503 5501 5499 5497 5496 5496 5495 5496 5497 5499
5627 5621 5616 5611 5605 5599 5594 5588 5582 5575 5569 5566 5561 5553 5546 5538 5532 5526 5520 5515 5510 5504 5499 5495 5490 5486 5483 5480 5477 5475 5473 5472 5471 5471 5471 5472 5472 5473
5612 5606 5601 5595 5590 5583 5577 5571 5564 5557 5550 5544 5540 5533 5525 5516 5509 5503 5496 5490 5484 5478 5473 5468 5464 5460 5457 5454 5452 5450 5449 5448 5448 5448 5448 5449 5450 5451
5597 5591 5585 5579 5573 5566 5560 5553 5545 5538 5530 5523 5517 5511 5503 5494 5485 5478 5473 5466 5460 5453 5447 5443 5439 5436 5433 5431 5429 5428 5427 5427 5427 5427 5428 5429 5430 5432
5582 5575 5569 5562 5555 5548 5540 5533 5524 5516 5508 5500 5494 5487 5479 5470 5461 5453 5448 5443 5438 5430 5425 5421 5417 5415 5412 5410 5409 5409 5408 5408 5409 5410 5411 5412 5414 5416
5566 5559 5552 5545 5537 5529 5520 5511 5502 5492 5483 5476 5469 5462 5454 5445 5437 5430 5424 5420 5418 5413 5406 5404 5399 5398 5395 5394 5393 5393 5393 5394 5395 5395 5397 5398 5400 5402
5549 5542 5534 5526 5516 5508 5500 5491 5481 5469 5458 5450 5444 5437 5429 5421 5414 5409 5403 5399 5397 5394 5389 5389 5385 5383 5381 5380 5379 5379 5380 5381 5382 5383 5385 5386 5388 5390
5531 5522 5514 5506 5495 5485 5477 5469 5459 5448 5436 5427 5419 5413 5406 5400 5393 5389 5385 5383 5382 5378 5374 5374 5372 5370 5369 5368 5367 5367 5368 5369 5371 5372 5374 5376 5377 5379
5513 5503 5492 5484 5474 5462 5452 5444 5436 5426 5415 5406 5398 5392 5386 5381 5375 5372 5369 5367 5367 5366 5361 5360 5360 5359 5358 5357 5356 5356 5357 5359 5361 5362 5364 5366 5367 5369
5494 5484 5471 5459 5449 5437 5426 5417 5410 5403 5395 5388 5381 5374 5369 5365 5360 5357 5354 5353 5352 5353 5350 5348 5348 5347 5348 5348 5347 5347 5348 5349 5351 5353 5355 5357 5358 5360
5472 5462 5450 5437 5425 5414 5403 5393 5386 5379 5374 5369 5364 5359 5355 5351 5348 5345 5342 5340 5340 5340 5339 5337 5337 5337 5337 5339 5338 5338 5339 5341 5342 5344 5346 5348 5350 5352
5447 5437 5426 5414 5403 5392 5382 5373 5365 5359 5354 5351 5347 5344 5341 5338 5336 5333 5331 5329 5328 5328 5328 5327 5327 5328 5328 5329 5330 5330 5331 5332 5334 5336 5338 5339 5341 5343
5422 5412 5402 5391 5380 5371 5362 5354 5347 5342 5338 5335 5333 5330 5328 5326 5324 5323 5321 5319 5319 5318 5318 5318 5318 5319 5319 5321 5321 5322 5323 5324 5325 5327 5329 5331 5333 5335
5401 5391 5380 5370 5360 5352 5345 5338 5332 5327 5324 5322 5320 5319 5317 5315 5314 5312 5311 5310 5310 5309 5309 5309 5310 5310 5311 5312 5313 5314 5315 5316 5318 5319 5321 5323 5325 5327
5379 5370 5361 5352 5344 5337 5330 5324 5319 5316 5313 5311 5309 5308 5307 5305 5304 5303 5302 5301 5301 5301 5300 5301 5302 5302 5303 5304 5305 5306 5308 5309 5310 5311 5313 5315 5317 5319
5357 5350 5342 5335 5328 5322 5317 5313 5309 5305 5303 5301 5299 5298 5297 5296 5295 5294 5293 5293 5292 5292 5293 5293 5294 5295 5296 5297 5298 5299 5300 5301 5302 5304 5305 5307 5309 5311
5340 5333 5326 5320 5314 5309 5305 5302 5299 5296 5294 5292 5290 5289 5288 5287 5286 5285 5285 5284 5284 5285 5285 5285 5286 5287 5288 5289 5290 5292 5293 5294 5295 5296 5298 5299 5301 5303
5324 5318 5312 5306 5302 5297 5294 5291 5289 5287 5285 5283 5282 5280 5279 5278 5278 5277 5277 5277 5277 5277 5277 5278 5279 5280 5281 5282 5283 5284 5285 5286 5287 5289 5290 5292 5294 5296
5310 5304 5298 5294 5290 5286 5284 5281 5280 5278 5276 5275 5273 5272 5271 5270 5270 5269 5269 5269 5270 5270 5270 5271 5271 5273 5274 5275 5276 5277 5278 5279 5280 5282 5283 5285 5287 5289
5296 5291 5286 5282 5279 5276 5274 5272 5271 5269 5268 5266 5265 5264 5263 5262 5262 5262 5262 5262 5263 5263 5263 5264 5265 5266 5267 5268 5269 5270 5271 5272 5274 5275 5277 5279 5281 5283
5283 5279 5275 5271 5268 5266 5264 5263 5262 5260 5259 5258 5257 5256 5255 5255 5255 5255 5255 5255 5256 5256 5257 5257 5258 5259 5260 5262 5263 5264 5265 5266 5267 5269 5271 5273 5275 5277